Ames, IA

5:49 PM CST on December 04, 2016 (GMT -0600)
Ames Municipal

Weather History for KAMW - December, 2012

Change the Weather History Date:

Monday, December 3, 2012

  Actual Average Record
Temperature  
Mean Temperature 51 °F 27 °F  
Max Temperature 68 °F 36 °F 68 °F (2012)
Min Temperature 33 °F 18 °F 0 °F (2000)
Degree Days  
Heating Degree Days 14 38  
Month to date heating degree days 55 112  
Since 1 July heating degree days 1443 1566  
Cooling Degree Days 0 0  
Month to date cooling degree days 0 0  
Year to date cooling degree days 1067 752  
Growing Degree Days 4 (Base 50)    
Moisture  
Dew Point 48 °F    
Average Humidity 77    
Maximum Humidity 100    
Minimum Humidity 53    
Precipitation  
Precipitation 0.00 in 0.05 in 1.03 in (2011)
Month to date precipitation 0.00 0.18  
Sea Level Pressure  
Sea Level Pressure 29.77 in    
Wind  
Wind Speed 13 mph (South)    
Max Wind Speed 28 mph    
Max Gust Speed 35 mph    
Visibility 6 miles    
Events Fog    
T = Trace of Precipitation, MM = Missing Value Source: NWS Daily Summary

Daily Weather History Graph

Daily Weather History Graph

Search for Another Location

Airport or City:

Trip Planner

Search our weather history database for the weather conditions in past years. The results will help you decide how hot, cold, wet, or windy it might be!

Date:

Astronomy

Dec. 03, 2012 Rise Set
Actual Time 7:25 AM CST 4:43 PM CST
Civil Twilight 6:54 AM CST 5:14 PM CST
Nautical Twilight 6:19 AM CST 5:49 PM CST
Astronomical Twilight 5:45 AM CST 6:23 PM CST
Moon 9:33 PM CST (12/3) 10:46 AM CST (12/3)
Length of Visible Light 10h 20m
Length of Day
9h 17m
Waning Gibbous, 78% of the Moon is Illuminated
Dec 3
Waning Gibbous
Dec 6
Last Quarter
Dec 13
New
Dec 19
First Quarter
Dec 28
Full

Hourly Weather History & Observations

Time (CST) Temp. Windchill Dew Point Humidity Pressure Visibility Wind Dir Wind Speed Gust Speed Precip Events Conditions
12:19 AM 46.4 °F 41.1 °F 46.4 °F 100% 29.87 in 0.8 mi SSE 11.5 mph - N/A   Overcast
12:53 AM 46.9 °F - 46.9 °F 100% 29.86 in 0.5 mi SSE 11.5 mph - N/A Fog Fog
1:53 AM 48.0 °F - 48.0 °F 100% 29.82 in 0.5 mi SSE 9.2 mph - N/A Fog Fog
2:29 AM 48.2 °F - 48.2 °F 100% 29.81 in 0.2 mi SSE 11.5 mph - N/A Fog Fog
2:53 AM 48.9 °F - 48.9 °F 100% 29.79 in 0.2 mi SE 12.7 mph - N/A Fog Fog
3:21 AM 50.0 °F - 50.0 °F 100% 29.77 in 0.5 mi SE 13.8 mph - N/A Fog Fog
3:53 AM 50.0 °F - 50.0 °F 100% 29.75 in 0.5 mi SE 13.8 mph - N/A Fog Fog
4:20 AM 50.0 °F - 50.0 °F 100% 29.73 in 1.0 mi SSE 12.7 mph - N/A   Mist
4:53 AM 51.1 °F - 51.1 °F 100% 29.72 in 2.5 mi SSE 12.7 mph 20.7 mph N/A   Overcast
5:19 AM 51.8 °F - 51.8 °F 100% 29.70 in 3.0 mi SSE 15.0 mph 20.7 mph N/A   Mostly Cloudy
5:48 AM 51.8 °F - 51.8 °F 100% 29.70 in 3.0 mi SE 11.5 mph - N/A   Scattered Clouds
5:53 AM 51.1 °F - 51.1 °F 100% 29.70 in 3.0 mi SE 10.4 mph - N/A   Scattered Clouds
6:01 AM 50.0 °F - 50.0 °F 100% 29.70 in 3.0 mi SE 10.4 mph - N/A   Mostly Cloudy
6:49 AM 51.8 °F - 51.8 °F 100% 29.70 in 3.0 mi SSE 9.2 mph - N/A   Overcast
7:53 AM 54.0 °F - 53.1 °F 97% 29.67 in 2.5 mi SE 10.4 mph - N/A   Overcast
8:16 AM 53.6 °F - 53.6 °F 100% 29.67 in 3.0 mi SSE 8.1 mph - N/A   Overcast
8:28 AM 53.6 °F - 53.6 °F 100% 29.67 in 2.5 mi SE 8.1 mph - N/A   Overcast
9:15 AM 60.8 °F - 57.2 °F 88% 29.67 in 6.0 mi South 13.8 mph 17.3 mph N/A   Overcast
9:53 AM 62.1 °F - 57.9 °F 86% 29.66 in 7.0 mi South 12.7 mph 21.9 mph N/A   Overcast
10:53 AM 64.9 °F - 57.9 °F 78% 29.65 in 10.0 mi South 21.9 mph 28.8 mph N/A   Overcast
11:42 AM 66.2 °F - 55.4 °F 68% 29.65 in 10.0 mi SW 21.9 mph 28.8 mph N/A   Overcast
11:53 AM 66.0 °F - 55.0 °F 68% 29.64 in 10.0 mi SW 24.2 mph - N/A   Overcast
12:53 PM 68.0 °F - 54.0 °F 61% 29.63 in 10.0 mi SW 21.9 mph - N/A   Clear
1:53 PM 62.1 °F - 50.0 °F 65% 29.68 in 9.0 mi West 20.7 mph 31.1 mph N/A   Scattered Clouds
2:53 PM 59.0 °F - 42.1 °F 53% 29.73 in 10.0 mi WNW 19.6 mph 28.8 mph N/A   Mostly Cloudy
3:53 PM 57.9 °F - 41.0 °F 53% 29.79 in 10.0 mi NW 17.3 mph 23.0 mph N/A   Clear
4:53 PM 55.0 °F - 41.0 °F 59% 29.84 in 10.0 mi NW 10.4 mph - N/A   Clear
5:53 PM 53.1 °F - 39.9 °F 61% 29.88 in 10.0 mi NW 11.5 mph - N/A   Clear
6:53 PM 51.1 °F - 37.9 °F 61% 29.92 in 10.0 mi NW 11.5 mph - N/A   Clear
7:53 PM 46.9 °F - 35.1 °F 63% 29.95 in 10.0 mi WNW 8.1 mph - N/A   Clear
8:53 PM 41.0 °F 35.8 °F 32.0 °F 70% 29.99 in 10.0 mi West 8.1 mph - N/A   Clear
9:53 PM 39.9 °F 35.1 °F 30.9 °F 70% 30.01 in 10.0 mi West 6.9 mph - N/A   Clear
10:53 PM 37.0 °F 31.6 °F 30.0 °F 76% 30.03 in 10.0 mi West 6.9 mph - N/A   Clear